Reno, NV

3:48 PM PST on January 17, 2017 (GMT -0800)
Reno - Stead

Weather History for KRTS - March, 2013

Change the Weather History Date:

Sunday, March 17, 2013

  Actual Average (KRNO) Record (KRNO)
Temperature  
Mean Temperature 44 °F -  
Max Temperature 59 °F 56 °F 78 °F (1972)
Min Temperature 28 °F 29 °F 9 °F (1952)
Degree Days  
Heating Degree Days 22    
Moisture  
Dew Point 15 °F    
Average Humidity 33    
Maximum Humidity 60    
Minimum Humidity 12    
Precipitation  
Precipitation 0.00 in - - ()
Sea Level Pressure  
Sea Level Pressure 30.08 in    
Wind  
Wind Speed 7 mph (NW)    
Max Wind Speed 23 mph    
Max Gust Speed 36 mph    
Visibility 10 miles    
Events      
Averages and records for this station are not official NWS values.
T = Trace of Precipitation, MM = Missing Value Source: NWS Daily Summary

Daily Weather History Graph

Daily Weather History Graph

Search for Another Location

Airport or City:

Trip Planner

Search our weather history database for the weather conditions in past years. The results will help you decide how hot, cold, wet, or windy it might be!

Date:

Astronomy

Mar. 17, 2013 Rise Set
Actual Time 7:07 AM PDT 7:08 PM PDT
Civil Twilight 6:40 AM PDT 7:35 PM PDT
Nautical Twilight 6:09 AM PDT 8:07 PM PDT
Astronomical Twilight 5:37 AM PDT 8:39 PM PDT
Moon 10:24 AM PDT 12:20 AM PDT
Length of Visible Light 12h 55m
Length of Day
12h 01m
Waxing Crescent, 32% of the Moon is Illuminated
Mar 17
Waxing Crescent
Mar 19
First Quarter
Mar 27
Full
Apr 2
Last Quarter
Apr 10
New

Hourly Weather History & Observations

Time (PDT) Temp. Windchill Dew Point Humidity Pressure Visibility Wind Dir Wind Speed Gust Speed Precip Events Conditions
12:15 AM 41.0 °F 36.4 °F 23.0 °F 49% 30.08 in 10.0 mi West 6.9 mph - N/A   Clear
12:35 AM 41.0 °F 34.3 °F 23.0 °F 49% 30.09 in 10.0 mi West 11.5 mph - N/A   Clear
12:55 AM 41.0 °F 34.7 °F 23.0 °F 49% 30.08 in 10.0 mi West 10.4 mph - N/A   Clear
1:15 AM 41.0 °F 35.8 °F 23.0 °F 49% 30.09 in 10.0 mi West 8.1 mph - N/A   Clear
1:35 AM 39.2 °F 35.9 °F 23.0 °F 52% 30.08 in 10.0 mi NW 4.6 mph - N/A   Clear
1:55 AM 39.2 °F 33.6 °F 24.8 °F 56% 30.07 in 10.0 mi West 8.1 mph - N/A   Clear
2:15 AM 39.2 °F 35.0 °F 23.0 °F 52% 30.06 in 10.0 mi West 5.8 mph - N/A   Clear
2:35 AM 41.0 °F 39.0 °F 23.0 °F 49% 30.07 in 10.0 mi South 3.5 mph - N/A   Clear
2:55 AM 35.6 °F 32.8 °F 23.0 °F 60% 30.07 in 10.0 mi East 3.5 mph - N/A   Clear
3:15 AM 41.0 °F 39.0 °F 23.0 °F 49% 30.07 in 10.0 mi SSE 3.5 mph - N/A   Clear
3:35 AM 41.0 °F 38.0 °F 21.2 °F 45% 30.06 in 10.0 mi South 4.6 mph - N/A   Clear
3:55 AM 41.0 °F 39.0 °F 19.4 °F 42% 30.06 in 10.0 mi South 3.5 mph - N/A   Clear
4:15 AM 41.0 °F 39.0 °F 19.4 °F 42% 30.06 in 10.0 mi East 3.5 mph - N/A   Clear
4:35 AM 41.0 °F 37.1 °F 19.4 °F 42% 30.05 in 10.0 mi NE 5.8 mph - N/A   Clear
4:55 AM 39.2 °F 35.0 °F 17.6 °F 42% 30.05 in 10.0 mi East 5.8 mph - N/A   Clear
5:15 AM 39.2 °F 35.0 °F 17.6 °F 42% 30.05 in 10.0 mi East 5.8 mph - N/A   Clear
5:35 AM 37.4 °F 34.9 °F 17.6 °F 45% 30.04 in 10.0 mi West 3.5 mph - N/A   Clear
5:55 AM 32.0 °F - 17.6 °F 55% 30.05 in 10.0 mi Calm Calm - N/A   Clear
6:15 AM 32.0 °F 25.6 °F 17.6 °F 55% 30.05 in 10.0 mi North 6.9 mph - N/A   Clear
6:35 AM 32.0 °F 25.6 °F 15.8 °F 51% 30.07 in 10.0 mi NNW 6.9 mph - N/A   Clear
6:55 AM 28.4 °F 20.4 °F 15.8 °F 59% 30.08 in 10.0 mi North 8.1 mph - N/A   Clear
7:35 AM 32.0 °F - 15.8 °F 51% 30.10 in 10.0 mi Calm Calm - N/A   Clear
7:55 AM 30.2 °F - 15.8 °F 55% 30.10 in 10.0 mi Calm Calm - N/A   Clear
8:15 AM 33.8 °F - 17.6 °F 52% 30.10 in 10.0 mi Calm Calm - N/A   Clear
8:35 AM 37.4 °F 34.9 °F 17.6 °F 45% 30.10 in 10.0 mi South 3.5 mph - N/A   Clear
8:55 AM 41.0 °F 37.1 °F 15.8 °F 36% 30.11 in 10.0 mi South 5.8 mph - N/A   Clear
9:15 AM 44.6 °F 42.2 °F 15.8 °F 31% 30.11 in 10.0 mi SSE 4.6 mph - N/A   Clear
9:35 AM 44.6 °F 42.2 °F 15.8 °F 31% 30.11 in 10.0 mi ESE 4.6 mph - N/A   Clear
9:55 AM 46.4 °F 43.5 °F 14.0 °F 27% 30.11 in 10.0 mi NW 5.8 mph - N/A   Clear
10:15 AM 48.2 °F - 14.0 °F 25% 30.11 in 10.0 mi WNW 12.7 mph 16.1 mph N/A   Clear
10:35 AM 48.2 °F - 10.4 °F 22% 30.11 in 10.0 mi WNW 5.8 mph - N/A   Clear
10:55 AM 50.0 °F - 8.6 °F 19% 30.12 in 10.0 mi NE 5.8 mph - N/A   Clear
11:15 AM 50.0 °F - 6.8 °F 17% 30.12 in 10.0 mi NW 9.2 mph - N/A   Clear
11:35 AM 51.8 °F - 10.4 °F 19% 30.12 in 10.0 mi WNW 12.7 mph - N/A   Clear
11:55 AM 51.8 °F - 10.4 °F 19% 30.11 in 10.0 mi WSW 6.9 mph - N/A   Clear
12:15 PM 53.6 °F - 10.4 °F 18% 30.11 in 10.0 mi Calm Calm - N/A   Clear
12:35 PM 53.6 °F - 10.4 °F 18% 30.11 in 10.0 mi WSW 8.1 mph - N/A   Clear
12:55 PM 53.6 °F - 10.4 °F 18% 30.10 in 10.0 mi West 5.8 mph - N/A   Clear
1:35 PM 55.4 °F - 8.6 °F 15% 30.09 in 10.0 mi NW 11.5 mph 20.7 mph N/A   Clear
1:55 PM 55.4 °F - 8.6 °F 15% 30.08 in 10.0 mi West 6.9 mph 20.7 mph N/A   Clear
2:15 PM 57.2 °F - 8.6 °F 14% 30.07 in 10.0 mi West 10.4 mph - N/A   Clear
2:35 PM 55.4 °F - 10.4 °F 17% 30.06 in 10.0 mi West 12.7 mph 16.1 mph N/A   Clear
2:55 PM 59.0 °F - 10.4 °F 15% 30.06 in 10.0 mi WNW 11.5 mph 21.9 mph N/A   Clear
3:15 PM 57.2 °F - 10.4 °F 16% 30.06 in 10.0 mi WNW 13.8 mph 18.4 mph N/A   Clear
3:35 PM 59.0 °F - 8.6 °F 14% 30.05 in 10.0 mi WNW 15.0 mph 21.9 mph N/A   Clear
3:55 PM 57.2 °F - 10.4 °F 16% 30.05 in 10.0 mi NW 13.8 mph 24.2 mph N/A   Clear
4:15 PM 57.2 °F - 10.4 °F 16% 30.05 in 10.0 mi NNW 8.1 mph 23.0 mph N/A   Clear
4:35 PM 57.2 °F - 10.4 °F 16% 30.05 in 10.0 mi NNW 11.5 mph 17.3 mph N/A   Partly Cloudy
4:55 PM 57.2 °F - 8.6 °F 14% 30.05 in 10.0 mi NW 23.0 mph 35.7 mph N/A   Partly Cloudy
5:15 PM 57.2 °F - 5.0 °F 12% 30.06 in 10.0 mi NW 12.7 mph - N/A   Clear
5:35 PM 57.2 °F - 6.8 °F 13% 30.06 in 10.0 mi WNW 15.0 mph 20.7 mph N/A   Clear
5:55 PM 55.4 °F - 6.8 °F 14% 30.06 in 10.0 mi NNW 10.4 mph - N/A   Clear
6:15 PM 55.4 °F - 10.4 °F 17% 30.06 in 10.0 mi North 12.7 mph 21.9 mph N/A   Clear
6:35 PM 53.6 °F - 10.4 °F 18% 30.06 in 10.0 mi North 12.7 mph - N/A   Clear
6:55 PM 51.8 °F - 10.4 °F 19% 30.06 in 10.0 mi North 11.5 mph - N/A   Clear
7:15 PM 48.2 °F - 10.4 °F 22% 30.06 in 10.0 mi North 9.2 mph - N/A   Clear
7:55 PM 46.4 °F 41.9 °F 10.4 °F 23% 30.07 in 10.0 mi North 9.2 mph - N/A   Partly Cloudy
8:15 PM 44.6 °F 40.2 °F 10.4 °F 25% 30.08 in 10.0 mi NNW 8.1 mph - N/A   Clear
8:35 PM 44.6 °F 39.7 °F 12.2 °F 27% 30.08 in 10.0 mi North 9.2 mph - N/A   Clear
8:55 PM 39.2 °F 33.6 °F 12.2 °F 33% 30.08 in 10.0 mi NNW 8.1 mph - N/A   Clear
9:15 PM 44.6 °F 40.2 °F 24.8 °F 46% 30.09 in 10.0 mi WNW 8.1 mph - N/A   Clear
9:35 PM 39.2 °F 35.9 °F 19.4 °F 45% 30.10 in 10.0 mi NNW 4.6 mph - N/A   Clear
9:55 PM 37.4 °F 32.1 °F 17.6 °F 45% 30.10 in 10.0 mi North 6.9 mph - N/A   Clear
10:15 PM 37.4 °F 33.8 °F 14.0 °F 38% 30.11 in 10.0 mi NNW 4.6 mph - N/A   Clear
10:35 PM 39.2 °F 35.0 °F 14.0 °F 36% 30.11 in 10.0 mi North 5.8 mph - N/A   Clear
10:55 PM 39.2 °F - 15.8 °F 39% 30.12 in 10.0 mi Calm Calm - N/A   Clear
11:15 PM 39.2 °F - 14.0 °F 36% 30.12 in 10.0 mi Calm Calm - N/A   Clear
11:35 PM 39.2 °F 37.0 °F 14.0 °F 36% 30.12 in 10.0 mi NNW 3.5 mph - N/A   Clear
11:55 PM 39.2 °F 37.0 °F 14.0 °F 36% 30.13 in 10.0 mi North 3.5 mph - N/A   Clear